| time (UTC) | temp C | wind direction | speed KPH | gust KPH | rain 1hr cm | rain 24hr cm | rain mn cm | humidity % | barometer mb |
| 20260505180004 | 23 | 181 | 8.0 | 14.5 | 0.00 | 0.00 | 0.00 | 20 | 1009.9 |
| 20260505175003 | 23 | 187 | 6.4 | 17.7 | 0.00 | 0.00 | 0.00 | 18 | 1010.1 |
| 20260505174004 | 24 | 178 | 6.4 | 17.7 | 0.00 | 0.00 | 0.00 | 16 | 1010.2 |
| 20260505152004 | 30 | 187 | 17.7 | 24.1 | 0.00 | 0.00 | 0.00 | 10 | 1010.0 |
| 20260505151003 | 31 | 176 | 12.9 | 17.7 | 0.00 | 0.00 | 0.00 | 10 | 1010.2 |
| 20260505125004 | 33 | 209 | 17.7 | 27.4 | 0.00 | 0.00 | 0.00 | 12 | 1011.5 |
| 20260505123004 | 33 | 201 | 14.5 | 22.5 | 0.00 | 0.00 | 0.00 | 12 | 1011.9 |
| 20260505122003 | 32 | 186 | 14.5 | 35.4 | 0.00 | 0.00 | 0.00 | 10 | 1012.0 |
| 20260505121004 | 32 | 178 | 11.3 | 19.3 | 0.00 | 0.00 | 0.00 | 10 | 1012.1 |
| 20260505115003 | 31 | 204 | 20.9 | 29.0 | 0.00 | 0.00 | 0.00 | 10 | 1012.3 |
| 20260505114003 | 32 | 195 | 16.1 | 27.4 | 0.00 | 0.00 | 0.00 | 10 | 1012.3 |
| 20260505113004 | 31 | 175 | 16.1 | 22.5 | 0.00 | 0.00 | 0.00 | 10 | 1012.3 |
| 20260505112003 | 30 | 204 | 12.9 | 27.4 | 0.00 | 0.00 | 0.00 | 10 | 1012.5 |
| 20260505102004 | 30 | 197 | 14.5 | 20.9 | 0.00 | 0.00 | 0.00 | 10 | 1013.4 |
| 20260505101004 | 30 | 199 | 12.9 | 19.3 | 0.00 | 0.00 | 0.00 | 10 | 1013.4 |
| 20260505100003 | 30 | 159 | 6.4 | 17.7 | 0.00 | 0.00 | 0.00 | 10 | 1013.5 |
| 20260505095003 | 30 | 152 | 12.9 | 17.7 | 0.00 | 0.00 | 0.00 | 10 | 1013.7 |
| 20260505094004 | 30 | 173 | 8.0 | 17.7 | 0.00 | 0.00 | 0.00 | 10 | 1013.7 |
| 20260505093003 | 29 | 194 | 1.6 | 14.5 | 0.00 | 0.00 | 0.00 | 11 | 1013.8 |
| 20260505091003 | 28 | 193 | 3.2 | 17.7 | 0.00 | 0.00 | 0.00 | 12 | 1014.0 |
| 20260505090004 | 28 | 218 | 12.9 | 17.7 | 0.00 | 0.00 | 0.00 | 12 | 1014.1 |
| 20260505085004 | 28 | 201 | 6.4 | 16.1 | 0.00 | 0.00 | 0.00 | 12 | 1014.1 |
| 20260505084004 | 27 | 194 | 3.2 | 17.7 | 0.00 | 0.00 | 0.00 | 10 | 1014.5 |
| 20260505083005 | 27 | 224 | 4.8 | 14.5 | 0.00 | 0.00 | 0.00 | 12 | 1014.6 |
| 20260505082005 | 27 | 215 | 6.4 | 17.7 | 0.00 | 0.00 | 0.00 | 10 | 1014.4 |
| 20260505081005 | 27 | 194 | 3.2 | 14.5 | 0.00 | 0.00 | 0.00 | 12 | 1014.7 |
| 20260504213005 | 15 | 198 | 1.6 | 3.2 | 0.00 | 0.00 | 0.00 | 34 | 1015.6 |
| 20260504212004 | 16 | 225 | 0.0 | 3.2 | 0.00 | 0.00 | 0.00 | 33 | 1015.6 |
| 20260504211005 | 16 | 200 | 1.6 | 6.4 | 0.00 | 0.00 | 0.00 | 31 | 1015.5 |
| 20260504210004 | 16 | 185 | 4.8 | 8.0 | 0.00 | 0.00 | 0.00 | 31 | 1015.6 |
| 20260504203005 | 15 | 135 | 0.0 | 3.2 | 0.00 | 0.00 | 0.00 | 32 | 1015.4 |
| 20260504202004 | 16 | 139 | 1.6 | 3.2 | 0.00 | 0.00 | 0.00 | 31 | 1015.6 |
| 20260504201004 | 16 | 181 | 1.6 | 3.2 | 0.00 | 0.00 | 0.00 | 30 | 1015.4 |
| 20260504200005 | 16 | 181 | 1.6 | 3.2 | 0.00 | 0.00 | 0.00 | 30 | 1015.1 |
| 20260504195005 | 17 | 181 | 0.0 | 3.2 | 0.00 | 0.00 | 0.00 | 28 | 1015.3 |
| 20260504194005 | 18 | 181 | 0.0 | 6.4 | 0.00 | 0.00 | 0.00 | 28 | 1015.3 |
| 20260504193005 | 18 | 178 | 3.2 | 6.4 | 0.00 | 0.00 | 0.00 | 28 | 1015.3 |
| 20260504192004 | 18 | 176 | 3.2 | 8.0 | 0.00 | 0.00 | 0.00 | 28 | 1015.2 |
| 20260504191004 | 19 | 144 | 3.2 | 4.8 | 0.00 | 0.00 | 0.00 | 28 | 1015.1 |
| 20260504190005 | 20 | 149 | 3.2 | 6.4 | 0.00 | 0.00 | 0.00 | 27 | 1015.4 |
| 20260504185005 | 20 | 156 | 3.2 | 6.4 | 0.00 | 0.00 | 0.00 | 25 | 1015.2 |
| 20260504184004 | 20 | 162 | 3.2 | 6.4 | 0.00 | 0.00 | 0.00 | 24 | 1015.1 |
| 20260504183005 | 20 | 181 | 3.2 | 6.4 | 0.00 | 0.00 | 0.00 | 23 | 1015.4 |
| 20260504182004 | 21 | 169 | 0.0 | 4.8 | 0.00 | 0.00 | 0.00 | 21 | 1015.1 |
| 20260504181004 | 22 | 181 | 0.0 | 3.2 | 0.00 | 0.00 | 0.00 | 19 | 1015.0 |